Date String (YYYY-MM-DD hh:mm:ss) UTC,Instrument flags,absolute air pressure of the measurement (hPa),sample flow rate (lpm),inlet stack bypass flow (lpm),air temperature of the measurement (°C),ambient temperature measured by the external sensor (°C),aerosol sample conditioner tube jacket temperature (°C),OPC LED temperature (°C),internal box temperature (°C),relative humidity of the measurement (%),span deviation,mass concentration of particles derived from Lorenz-Mie calculation of OPC scattering (μg/m³),mass concentration of particles derived from Lorenz-Mie calculation of OPC scattering (μg/m³),mass concentration of particles derived from Lorenz-Mie calculation of OPC scattering (μg/m³)
DateTimeUTC,F1_M11,P_M11,Q1_M11,Q2_M11,T1_M11,T2_M11,T3_M11,T4_M11,T5_M11,U1_M11,ZSPAN_M11,X2_M11,X0_M11,X1_M11
2023-06-20 02:00:00,SystemResetWarning,0824.3,5.00,000.00,029.1,026.8,000.0,037.6,030.8,24.4,0000.0,0004.74,0019.62,0003.42
2023-06-20 02:01:00,SystemResetWarning,0824.3,5.00,000.00,029.2,027.2,000.0,037.6,030.9,24.5,0000.0,0004.66,0020.59,0003.43
2023-06-20 02:02:00,SystemResetWarning,0824.3,4.99,000.00,029.2,027.5,000.0,037.6,031.0,24.7,0000.0,0004.66,0020.43,0003.44
2023-06-20 02:03:00,SystemResetWarning,0824.3,4.99,000.00,029.3,027.8,000.0,037.7,031.1,24.6,0000.0,0004.69,0020.74,0003.45
2023-06-20 02:04:00,SystemResetWarning,0824.3,5.00,000.00,029.3,027.6,000.0,037.7,031.1,24.6,0000.0,0004.70,0021.24,0003.45
2023-06-20 02:05:00,SystemResetWarning,0824.3,5.00,000.00,029.3,025.8,000.0,037.6,030.8,23.1,0000.0,0004.70,0021.41,0003.43
2023-06-20 02:06:00,SystemResetWarning,0824.3,5.01,000.00,029.3,024.5,000.0,037.6,030.7,22.6,0000.0,0004.73,0019.94,0003.43
2023-06-20 02:07:00,SystemResetWarning,0824.2,5.01,000.00,029.2,024.4,000.0,037.5,030.6,22.9,0000.0,0004.70,0018.71,0003.42
2023-06-20 02:08:00,SystemResetWarning,0824.2,4.99,000.00,029.1,024.9,000.0,037.6,030.5,22.2,0000.0,0004.70,0018.32,0003.43
2023-06-20 02:09:00,SystemResetWarning,0824.3,5.00,000.00,029.1,025.4,000.0,037.6,030.5,22.0,0000.0,0004.67,0018.28,0003.43
2023-06-20 02:10:00,SystemResetWarning,0824.3,5.01,000.00,029.1,025.9,000.0,037.6,030.6,22.9,0000.0,0004.68,0019.24,0003.43
2023-06-20 02:11:00,SystemResetWarning,0824.3,5.00,000.00,029.1,026.4,000.0,037.6,030.7,22.9,0000.0,0004.70,0019.72,0003.44
2023-06-20 02:12:00,SystemResetWarning,0824.3,5.00,000.00,029.1,026.8,000.0,037.6,030.8,23.6,0000.0,0004.70,0018.38,0003.45
2023-06-20 02:13:00,SystemResetWarning,0824.3,4.99,000.00,029.2,027.2,000.0,037.6,030.9,23.9,0000.0,0004.66,0017.96,0003.44
2023-06-20 02:14:00,SystemResetWarning,0824.3,5.00,000.00,029.2,027.5,000.0,037.7,031.0,22.8,0000.0,0004.67,0017.94,0003.45
2023-06-20 02:15:00,SystemResetWarning,0824.3,5.00,000.00,029.3,027.8,000.0,037.7,031.1,23.7,0000.0,0004.67,0017.75,0003.45
2023-06-20 02:16:00,SystemResetWarning,0824.4,5.00,000.00,029.3,027.2,000.0,037.7,031.1,23.0,0000.0,0004.68,0017.68,0003.46
2023-06-20 02:17:00,SystemResetWarning,0824.3,5.00,000.00,029.3,025.2,000.0,037.6,030.8,23.2,0000.0,0004.70,0017.74,0003.48
2023-06-20 02:18:00,SystemResetWarning,0824.3,5.01,000.00,029.3,024.3,000.0,037.6,030.7,23.7,0000.0,0004.71,0017.24,0003.49
2023-06-20 02:19:00,SystemResetWarning,0824.3,5.01,000.00,029.2,024.5,000.0,037.5,030.6,23.8,0000.0,0004.72,0017.27,0003.49
2023-06-20 02:20:00,SystemResetWarning,0824.3,5.00,000.00,029.1,024.9,000.0,037.6,030.4,23.8,0000.0,0004.76,0016.81,0003.49
2023-06-20 02:21:00,SystemResetWarning,0824.4,4.99,000.00,029.0,025.5,000.0,037.6,030.5,24.6,0000.0,0004.81,0015.33,0003.50
2023-06-20 02:22:00,SystemResetWarning,0824.4,5.00,000.00,029.1,026.0,000.0,037.6,030.6,25.3,0000.0,0004.78,0014.52,0003.50
2023-06-20 02:23:00,SystemResetWarning,0824.4,5.01,000.00,029.1,026.5,000.0,037.6,030.7,25.2,0000.0,0004.81,0015.41,0003.51
2023-06-20 02:24:00,SystemResetWarning,0824.4,5.00,000.00,029.1,026.9,000.0,037.6,030.8,24.9,0000.0,0004.93,0017.27,0003.52
2023-06-20 02:25:00,SystemResetWarning,0824.4,4.98,000.00,029.2,027.2,000.0,037.6,030.9,23.9,0000.0,0004.96,0017.86,0003.51
2023-06-20 02:26:00,SystemResetWarning,0824.3,5.00,000.00,029.2,027.5,000.0,037.6,031.0,24.3,0000.0,0004.96,0018.71,0003.51
2023-06-20 02:27:00,SystemResetWarning,0824.4,5.01,000.00,029.3,027.8,000.0,037.7,031.1,24.3,0000.0,0004.96,0020.83,0003.51
2023-06-20 02:28:00,SystemResetWarning,0824.4,4.99,000.00,029.3,027.6,000.0,037.7,031.1,23.8,0000.0,0004.93,0020.62,0003.51
2023-06-20 02:29:00,SystemResetWarning,0824.4,4.99,000.00,029.3,025.9,000.0,037.6,031.0,23.9,0000.0,0004.93,0021.90,0003.50
2023-06-20 02:30:00,SystemResetWarning,0824.4,5.00,000.00,029.3,025.2,000.0,037.6,030.9,23.9,0000.0,0004.95,0022.32,0003.52
2023-06-20 02:31:00,SystemResetWarning,0824.4,5.02,000.00,029.2,025.4,000.0,037.6,030.7,23.7,0000.0,0004.96,0022.12,0003.52
2023-06-20 02:32:00,SystemResetWarning,0824.4,5.00,000.00,029.2,025.8,000.0,037.6,030.6,23.5,0000.0,0004.94,0021.63,0003.51
2023-06-20 02:33:00,SystemResetWarning,0824.4,5.00,000.00,029.2,026.2,000.0,037.7,030.7,23.6,0000.0,0004.98,0022.39,0003.51
2023-06-20 02:34:00,SystemResetWarning,0824.4,5.00,000.00,029.2,026.7,000.0,037.7,030.8,23.5,0000.0,0005.03,0022.10,0003.51
2023-06-20 02:35:00,SystemResetWarning,0824.3,4.99,000.00,029.2,027.1,000.0,037.7,030.9,23.7,0000.0,0004.93,0021.24,0003.51
2023-06-20 02:36:00,SystemResetWarning,0824.4,5.00,000.00,029.3,027.4,000.0,037.7,031.0,23.8,0000.0,0004.89,0020.41,0003.53
2023-06-20 02:37:00,SystemResetWarning,0824.4,5.00,000.00,029.3,027.7,000.0,037.7,031.0,23.9,0000.0,0004.91,0020.22,0003.53
2023-06-20 02:38:00,SystemResetWarning,0824.3,4.98,000.00,029.4,026.8,000.0,037.7,031.1,24.0,0000.0,0004.91,0017.32,0003.54
2023-06-20 02:39:00,SystemResetWarning,0824.3,5.01,000.00,029.3,025.2,000.0,037.7,031.0,23.9,0000.0,0004.91,0016.98,0003.54
2023-06-20 02:40:00,SystemResetWarning,0824.4,5.02,000.00,029.3,025.1,000.0,037.7,030.9,23.9,0000.0,0004.93,0016.08,0003.55
2023-06-20 02:41:00,SystemResetWarning,0824.4,5.00,000.00,029.2,025.4,000.0,037.7,030.7,24.3,0000.0,0004.88,0016.02,0003.54
2023-06-20 02:42:00,SystemResetWarning,0824.4,4.99,000.00,029.2,025.9,000.0,037.7,030.7,24.5,0000.0,0004.85,0016.55,0003.53
2023-06-20 02:43:00,SystemResetWarning,0824.4,5.00,000.00,029.2,026.4,000.0,037.7,030.8,24.4,0000.0,0004.87,0017.63,0003.54
2023-06-20 02:44:00,SystemResetWarning,0824.3,5.01,000.00,029.2,026.8,000.0,037.7,030.8,24.5,0000.0,0004.96,0017.94,0003.55
2023-06-20 02:45:00,SystemResetWarning,0824.3,5.00,000.00,029.3,027.1,000.0,037.7,030.9,24.5,0000.0,0004.94,0017.99,0003.55
2023-06-20 02:46:00,SystemResetWarning,0824.4,5.00,000.00,029.3,027.5,000.0,037.7,031.0,24.5,0000.0,0004.93,0017.11,0003.55
2023-06-20 02:47:00,SystemResetWarning,0824.4,5.01,000.00,029.3,027.7,000.0,037.8,031.1,24.2,0000.0,0004.95,0017.39,0003.55
2023-06-20 02:48:00,SystemResetWarning,0824.4,4.99,000.00,029.4,027.1,000.0,037.7,031.1,24.1,0000.0,0004.93,0017.64,0003.55
2023-06-20 02:49:00,SystemResetWarning,0824.4,4.99,000.00,029.4,025.4,000.0,037.7,030.9,24.2,0000.0,0004.93,0018.08,0003.55
2023-06-20 02:50:00,SystemResetWarning,0824.4,5.00,000.00,029.3,025.1,000.0,037.7,030.9,24.8,0000.0,0004.92,0018.30,0003.55
2023-06-20 02:51:00,SystemResetWarning,0824.4,5.02,000.00,029.2,025.4,000.0,037.7,030.7,24.7,0000.0,0004.96,0019.34,0003.56
2023-06-20 02:52:00,SystemResetWarning,0824.3,5.00,000.00,029.2,025.8,000.0,037.7,030.6,24.8,0000.0,0004.99,0019.11,0003.56
2023-06-20 02:53:00,SystemResetWarning,0824.4,5.00,000.00,029.2,026.3,000.0,037.7,030.7,24.5,0000.0,0004.97,0018.43,0003.57
2023-06-20 02:54:00,SystemResetWarning,0824.4,5.00,000.00,029.2,026.7,000.0,037.7,030.8,24.3,0000.0,0004.89,0018.13,0003.57
2023-06-20 02:55:00,SystemResetWarning,0824.4,5.00,000.00,029.3,027.1,000.0,037.7,030.9,26.0,0000.0,0004.78,0017.13,0003.56
2023-06-20 02:56:00,SystemResetWarning,0824.5,5.00,000.00,029.3,027.4,000.0,037.8,031.0,25.3,0000.0,0004.74,0016.98,0003.56
2023-06-20 02:57:00,SystemResetWarning,0824.4,5.01,000.00,029.3,027.6,000.0,037.8,031.0,23.8,0000.0,0004.72,0017.35,0003.56
2023-06-20 02:58:00,SystemResetWarning,0824.4,5.00,000.00,029.4,027.8,000.0,037.8,031.1,23.7,0000.0,0004.68,0018.84,0003.55
2023-06-20 02:59:00,SystemResetWarning,0824.4,4.98,000.00,029.4,026.4,000.0,037.8,031.0,23.5,0000.0,0004.65,0018.55,0003.54
